Ocean City, MD

11:07 PM EDT on April 27, 2017 (GMT -0400)
Ocean City Municipal

Weather History for KOXB - October, 2012

Change the Weather History Date:

Friday, October 12, 2012

  Actual Average (KSBY) Record (KSBY)
Temperature  
Mean Temperature 54 °F -  
Max Temperature 69 °F 68 °F 84 °F (1954)
Min Temperature 39 °F 48 °F 28 °F (1964)
Degree Days  
Heating Degree Days 12    
Growing Degree Days 4 (Base 50)    
Moisture  
Dew Point 41 °F    
Average Humidity 66    
Maximum Humidity 100    
Minimum Humidity 36    
Precipitation  
Precipitation 0.00 in - - ()
Sea Level Pressure  
Sea Level Pressure 30.21 in    
Wind  
Wind Speed 5 mph (NW)    
Max Wind Speed 16 mph    
Max Gust Speed 25 mph    
Visibility 10 miles    
Events      
Averages and records for this station are not official NWS values.
T = Trace of Precipitation, MM = Missing Value Source: NWS Daily Summary

Daily Weather History Graph

Daily Weather History Graph

Search for Another Location

Airport or City:

Trip Planner

Search our weather history database for the weather conditions in past years. The results will help you decide how hot, cold, wet, or windy it might be!

Date:

Astronomy

Oct. 12, 2012 Rise Set
Actual Time 7:06 AM EDT 6:26 PM EDT
Civil Twilight 6:40 AM EDT 6:52 PM EDT
Nautical Twilight 6:09 AM EDT 7:23 PM EDT
Astronomical Twilight 5:39 AM EDT 7:53 PM EDT
Moon 3:49 AM EDT (10/12) 4:32 PM EDT (10/12)
Length of Visible Light 12h 12m
Length of Day
11h 19m
Waning Crescent, 11% of the Moon is Illuminated
Oct 12
Waning Crescent
Oct 15
New
Oct 21
First Quarter
Oct 29
Full
Nov 6
Last Quarter

Hourly Weather History & Observations

Time (EDT) Temp. Windchill Dew Point Humidity Pressure Visibility Wind Dir Wind Speed Gust Speed Precip Events Conditions
12:53 AM 41.0 °F - 39.9 °F 96% 30.21 in 10.0 mi Calm Calm - N/A   Clear
2:53 AM 39.9 °F - 39.0 °F 97% 30.18 in 10.0 mi Calm Calm - N/A   Clear
4:53 AM 41.0 °F - 41.0 °F 100% 30.15 in 10.0 mi Calm Calm - N/A   Clear
5:53 AM 39.9 °F 37.8 °F 39.9 °F 100% 30.15 in 10.0 mi WSW 3.5 mph - N/A   Clear
6:53 AM 50.0 °F - 46.9 °F 89% 30.16 in 10.0 mi WSW 6.9 mph - N/A   Clear
7:53 AM 51.1 °F - 48.0 °F 89% 30.16 in 10.0 mi WSW 6.9 mph - N/A   Clear
8:53 AM 55.9 °F - 51.1 °F 84% 30.17 in 10.0 mi West 5.8 mph - N/A   Clear
9:53 AM 60.1 °F - 48.9 °F 67% 30.17 in 10.0 mi West 8.1 mph - N/A   Clear
10:53 AM 64.0 °F - 43.0 °F 46% 30.17 in 10.0 mi NW 6.9 mph - N/A   Clear
12:53 PM 66.9 °F - 39.9 °F 37% 30.17 in 10.0 mi North 12.7 mph 19.6 mph N/A   Clear
1:53 PM 66.9 °F - 39.9 °F 37% 30.15 in 10.0 mi NW 10.4 mph 20.7 mph N/A   Clear
2:53 PM 68.0 °F - 39.9 °F 36% 30.14 in 10.0 mi NW 12.7 mph 19.6 mph N/A   Clear
3:53 PM 68.0 °F - 42.1 °F 39% 30.16 in 10.0 mi NW 15.0 mph 18.4 mph N/A   Partly Cloudy
4:53 PM 63.0 °F - 46.9 °F 56% 30.19 in 10.0 mi NNE 9.2 mph 18.4 mph N/A   Mostly Cloudy
5:53 PM 57.9 °F - 43.0 °F 58% 30.22 in 10.0 mi NNE 16.1 mph 25.3 mph N/A   Partly Cloudy
6:53 PM 55.0 °F - 37.9 °F 53% 30.28 in 10.0 mi North 13.8 mph 20.7 mph N/A   Clear
7:53 PM 51.1 °F - 34.0 °F 52% 30.31 in 10.0 mi NNW 8.1 mph - N/A   Clear
8:53 PM 48.0 °F - 35.1 °F 61% 30.34 in 10.0 mi NW 4.6 mph - N/A   Clear
10:53 PM 45.0 °F 41.8 °F 36.0 °F 71% 30.39 in 10.0 mi NNW 5.8 mph - N/A   Clear
11:53 PM 48.0 °F - 35.1 °F 61% 30.41 in 10.0 mi North 6.9 mph - N/A   Clear